Regional Weather Roundup
Issued by NWS

Home | Current Version | Previous Version | Graphics & Text | Print | Product List | Glossary Off
Versions: 1 2 3 4 5 6 7 8 9 10 11 12 13 14 15 16 17 18 19 20 21 22 23 24 25 26 27 28 29 30 31 32 33 34 35 36 37 38 39 40 41 42 43 44 45 46 47 48 49 50

000
ASUS43 KTOP 270059
RWRKS

WEATHER ROUNDUP FOR KANSAS
NATIONAL WEATHER SERVICE GOODLAND KS
800 PM CDT WED APR 26 2017

NOTE:  "FAIR" INDICATES FEW OR NO CLOUDS BELOW 12,000 FEET WITH NO
SIGNIFICANT WEATHER AND/OR OBSTRUCTIONS TO VISIBILITY.

KSZ001>006-013>018-027>032-041>047-270200-
NORTHWEST KANSAS

CITY           SKY/WX    TMP DP  RH WIND       PRES   REMARKS
GOODLAND       CLEAR     56  29  35 NE6       29.68F
HAYS           CLEAR     52  34  50 N8        29.70R
HILL CITY      CLEAR     55  33  43 N5        29.69S
RUSSELL        CLEAR     50  33  52 N9        29.68S
$$

KSZ061>065-074>080-084>089-270200-
SOUTHWEST KANSAS

CITY           SKY/WX    TMP DP  RH WIND       PRES   REMARKS
DODGE CITY     CLEAR     54  32  43 N8        29.71R
ELKHART          N/A     57  32  39 N6          N/A
GARDEN CITY    CLEAR     54  30  40 N8        29.71R
GREAT BEND     CLEAR     50  37  61 N9        29.69S
LIBERAL        CLEAR     57  33  40 N7        29.72S
$$

KSZ066>073-081>083-090>101-270200-
SOUTHEAST KANSAS

CITY           SKY/WX    TMP DP  RH WIND       PRES   REMARKS
CHANUTE        CLOUDY    49  40  71 NW6       29.65R
COFFEYVILLE    CLOUDY    50  44  80 CALM      29.66R
HUTCHINSON     PTCLDY    51  35  54 N12       29.68R
MEDICINE LODGE   N/A     55  35  47 N8        29.69R
NEWTON         CLOUDY    49  36  61 N10       29.69R
PARSONS        CLOUDY    49  44  83 CALM      29.67R
WICHITA INTL   MOCLDY    52  37  56 N9        29.68R
WICHITA JABRA  CLOUDY    50  37  61 N12       29.68R
WINFIELD       PTCLDY    50  38  63 NW7       29.70R
$$

KSZ007>012-019>026-033>040-048>060-102>105-270200-
NORTHEAST KANSAS

CITY           SKY/WX    TMP DP  RH WIND       PRES   REMARKS
CONCORDIA      PTCLDY    47  34  60 N10G21    29.68R
EMPORIA        CLOUDY    50  38  63 NW13      29.65R
LAWRENCE       CLOUDY    47  37  68 NW16      29.64R
MANHATTAN      CLOUDY    49  35  58 N5        29.67R
OLATHE IND     CLOUDY    47  37  68 NW13      29.62R
OLATHE EXE     CLOUDY    46  37  71 NW14      29.61R
SALINA         CLOUDY    52  37  56 N9        29.69R
TOPEKA BILLARD CLOUDY    47  37  68 NW13      29.65R
TOPEKA FORBES  CLOUDY    48  36  63 NW17      29.65R
$$




USA.gov is the U.S. government's official web portal to all federal, state and local government web resources and services.